Weather in Sancti Spiritus

Cuba     21°55′31″N   79°26′14″W
temp.,
°C
wind,
m/s
gust,
m/s
humid.,
%
clouds,
%
prec.,
mm/h
press.,
hPa
HPBL,
m
28 september, tue
tue2823:00+23nne22910 0.0 101632
02:00+22nne11925 0.0 101412
05:00+22n11931 0.0 101412
08:00+23n12900 0.0 101474
11:00+28ne236721 0.0 10151155
14:00+29n436359 1.1 10131116
17:00+28nne44741 3.5 1012799
20:00+23nne36910 5.1 1013134
29 september, wed
wed2923:00+23n22920 0.4 101430
02:00+22nne22930 1.0 101320
05:00+22ne11930 0.0 101212
08:00+23nne13921 0.0 1014108
11:00+28ene337229 0.1 10151011
14:00+29nne226347 1.5 1013839
17:00+28nne347419 3.8 1012753
20:00+23n349266 7.4 101382
30 september, thu
thu3023:00+22nne269526 3.0 1014150
02:00+22nne229436 3.2 101328
05:00+22nne12945 0.0 101216
08:00+23n23913 0.0 101498
11:00+28ene447130 0.3 10151087
14:00+29ne446998 3.9 10131080
17:00+26ne4782100 8.3 1012293
20:00+23ne3992100 16.3 1014213
1 october, fri
fri123:00+22ne279497 2.4 1015173
02:00+22ne229396 2.4 101446
05:00+22ne229330 0.0 101332
08:00+23ene28924 0.1 1015267
11:00+28ene567311 0.5 10161098
14:00+31ene565876 0.8 10141998
17:00+28ne57723 0.8 1013686
20:00+23ne410910 1.9 1014299
2 october, sat
sat223:00+22ne26930 0.1 1016142
02:00+22ne22940 0.1 101544
05:00+22nne22955 0.5 101432
08:00+23ne28935 0.5 1015346
11:00+28ene577549 0.8 10161165
14:00+29ene676769 2.3 10141337
17:00+27ne687961 2.6 1013695
20:00+23ne310936 3.8 1014284